Zurück zum Katalog

CZ-6A DEB

AktivPO
NORAD 60693·DEBRIS·🇨🇳 China

Gestartet Aug 6, 2024 von Taiyuan Satellite Launch Center

Loading…

Nächste Überflüge (nächste 24 Stunden)

TLE

AktuellSource: Space-Track

Epoche: Sep 14, 2026, 10:51 UTC

1 60693U 24140CW  26257.45273045  .00000203  00000-0  10208-3 0  9996
2 60693  89.0084 267.0453 0080949 285.6059  73.6203 14.11194641107963

Verfolge CZ-6A DEB in Echtzeit mit AllMySat

Download on the App Store